Estación de Illapel
Ultimos registro cada 15 minutos 24
| N° | Estación | Fecha / Hora | Temperatura | Humedad | Lluvia | Velocidad | Dirección | Radiación | Presion |
| 24 | Illapel | 05-09-2026 05:45 | 7,6 | 31 | 0 | 0,4 | 141 | 0 | 990,4 |
| 23 | Illapel | 05-09-2026 05:30 | 7,2 | 29 | 0 | 0 | 130 | 0 | 990,5 |
| 22 | Illapel | 05-09-2026 05:15 | 7,5 | 29 | 0 | 0 | 130 | 0 | 990,5 |
| 21 | Illapel | 05-09-2026 05:00 | 8 | 29 | 0 | 0 | 134 | 0 | 990,5 |
| 20 | Illapel | 05-09-2026 04:45 | 8,1 | 30 | 0 | 0 | 135 | 0 | 990,5 |
| 19 | Illapel | 05-09-2026 04:30 | 7,6 | 29 | 0 | 0 | 154 | 0 | 990,5 |
| 18 | Illapel | 05-09-2026 04:15 | 7,8 | 29 | 0 | 0,4 | 155 | 0 | 990,6 |
| 17 | Illapel | 05-09-2026 04:00 | 8,2 | 29 | 0 | 0,4 | 155 | 0 | 990,7 |
| 16 | Illapel | 05-09-2026 03:45 | 8,3 | 28 | 0 | 0,4 | 190 | 0 | 990,7 |
| 15 | Illapel | 05-09-2026 03:30 | 8,7 | 29 | 0 | 0 | 123 | 0 | 990,8 |
| 14 | Illapel | 05-09-2026 03:15 | 8,5 | 30 | 0 | 0 | 118 | 0 | 990,9 |
| 13 | Illapel | 05-09-2026 03:00 | 8,5 | 29 | 0 | 0 | 98 | 0 | 991 |
| 12 | Illapel | 05-09-2026 02:45 | 8,5 | 30 | 0 | 0 | 163 | 0 | 991,3 |
| 11 | Illapel | 05-09-2026 02:30 | 8,8 | 29 | 0 | 0,4 | 202 | 0 | 991,5 |
| 10 | Illapel | 05-09-2026 02:15 | 8,6 | 31 | 0 | 0 | 219 | 0 | 991,7 |
| 9 | Illapel | 05-09-2026 02:00 | 8,7 | 32 | 0 | 0 | 219 | 0 | 991,9 |
| 8 | Illapel | 05-09-2026 01:45 | 8,8 | 31 | 0 | 0 | 219 | 0 | 992,1 |
| 7 | Illapel | 05-09-2026 01:30 | 8,9 | 32 | 0 | 0 | 220 | 0 | 992,2 |
| 6 | Illapel | 05-09-2026 01:15 | 8,7 | 34 | 0 | 0,9 | 235 | 0 | 992,3 |
| 5 | Illapel | 05-09-2026 01:00 | 8,8 | 36 | 0 | 0 | 239 | 0 | 992,3 |
| 4 | Illapel | 05-09-2026 00:45 | 8,9 | 36 | 0 | 0 | 239 | 0 | 992,4 |
| 3 | Illapel | 05-09-2026 00:30 | 9,3 | 38 | 0 | 0 | 238 | 0 | 992,6 |
| 2 | Illapel | 05-09-2026 00:15 | 9,4 | 38 | 0 | 0 | 238 | 0 | 992,8 |
| 1 | Illapel | 05-09-2026 00:00 | 9,7 | 39 | 0 | 0 | 238 | 0 | 992,9 |